[[{"header":{"parameterUnit":"m.s-1","parameterCategory":1,"la1":30.2991,"la2":30.254,"lo1":-89.0895,"lo2":-89.0444,"dy":0.0017,"dx":0.0017,"nx":28,"ny":28,"refTime":"2023-09-08T09:00:00:Z","depth":0,"parameterNumber":2,"parameterNumberName":"U-component_of_WINDS"},"data":[0,0,0,0,0,0,0,0,0,0,0,0,0,0,0,0,0,0,0,0,0,0,0,0,0,0,0,0,0,0,0,0,0,0,0,0,0,0,0,0,0,0,0,0,0,0,0,0,0,0,0,0,0,0,0,0,0,0,0.7274,0.7275,0,0.7382,0.7383,0.7384,0.7397,0.7396,0.7395,0.7394,0.7506,0.751,0.7514,0,0,0,0,0,0,0,0,0,0,0,0,0,0.7077,0.708,0.7274,0.7275,0.7276,0.7382,0.7383,0.7385,0.7397,0.7396,0.7395,0.7393,0.7504,0.7509,0.7514,0,0,0,0,0,0,0,0,0,0,0,0,0,0.7171,0.7082,0.7273,0.7295,0.7298,0.7381,0.7383,0.7385,0.7398,0.7396,0.7394,0.7393,0.7503,0.7509,0.7515,0.7584,0,0,0.7533,0.7535,0,0,0,0,0,0,0,0,0.7166,0.7179,0.7291,0.7294,0.7297,0.7374,0.7355,0.7452,0.7398,0.736,0.7394,0.7392,0.7463,0.7472,0.7496,0.7589,0.7594,0.7533,0.7537,0.7539,0.7541,0,0,0,0,0,0,0,0.716,0.7174,0.7317,0.7292,0.7296,0.7299,0.7311,0.7373,0.7419,0.7363,0.7364,0.7377,0.7465,0.7491,0.7499,0.7595,0.7533,0.7538,0.7542,0.7544,0.7747,0.7749,0,0,0,0,0,0,0.7149,0.7169,0.7313,0.732,0.7226,0.7304,0.7317,0.7351,0.7419,0.7427,0.7378,0.7377,0.7481,0.7492,0.7503,0.7587,0.7539,0.7545,0.7548,0.7745,0.7747,0.7749,0,0,0,0,0,0,0.7145,0.7162,0.7309,0.7245,0.7263,0.7309,0.7347,0.7354,0.738,0.743,0.7438,0.7396,0.748,0.7495,0.7563,0.7591,0.7548,0.7553,0.7743,0.7746,0.7748,0.7755,0,0,0,0,0,0,0.7139,0.716,0.7187,0.7245,0.7267,0.7367,0.7349,0.7358,0.739,0.739,0.7449,0.7457,0.748,0.7554,0.7569,0.7598,0.7558,0.7741,0.7744,0.7748,0.7753,0.7758,0.7762,0,0,0,0,0,0.7132,0.7186,0.7189,0.7206,0.7302,0.7369,0.7381,0.7406,0.7392,0.742,0.7451,0.7455,0.7585,0.7561,0.7578,0.7609,0.7739,0.7743,0.7747,0.7751,0.7757,0.7762,0,0,0,0,0,0,0.7131,0.7194,0.7198,0.7272,0.7315,0.7371,0.7406,0.7412,0.746,0.7458,0.7487,0.75,0.7567,0.7595,0.7567,0.7678,0.7661,0.7668,0.7658,0.7664,0.7669,0.766,0.7563,0,0,0,0,0,0.7139,0.7188,0.7241,0.7301,0.7322,0.736,0.739,0.7405,0.7451,0.747,0.7507,0.7551,0.7601,0.7634,0.7684,0.7757,0.7769,0.7787,0.7791,0.7795,0.7801,0.784,0.7848,0.7763,0.7763,0.7763,0,0,0.7157,0.7197,0.7227,0.7301,0.7337,0.7386,0.7375,0.7429,0.7466,0.7478,0.7544,0.7572,0.7624,0.7694,0.7727,0.7719,0.7827,0.78,0.7803,0.7807,0.7845,0.7853,0.786,0.7765,0.7765,0.7764,0,0,0.7215,0.7251,0.7304,0.7339,0.7391,0.7416,0.7428,0.7483,0.7502,0.7569,0.7578,0.7622,0.7709,0.7745,0.7774,0.7842,0.7847,0.7858,0.7882,0.792,0.7926,0.7932,0.7955,0.7963,0.7864,0.7864,0.7864,0,0.7231,0.7306,0.733,0.7383,0.7415,0.7427,0.748,0.7513,0.7579,0.7601,0.7591,0.7699,0.7735,0.7812,0.7828,0.7852,0.7867,0.7851,0.7923,0.793,0.7936,0.7958,0.7967,0.7864,0.7864,0.7864,0.7864,0,0.7322,0.7373,0.741,0.7472,0.7508,0.7561,0.7593,0.7626,0.7638,0.7663,0.7729,0.7772,0.7829,0.7849,0.7862,0.7928,0.7921,0.7917,0.79,0.7944,0.7965,0.7974,0.7866,0.7865,0.7865,0.7865,0,0,0.7383,0.7457,0.747,0.7497,0.7555,0.7595,0.7648,0.7703,0.773,0.7775,0.7819,0.7891,0.7887,0.792,0.7936,0.7969,0.8018,0.7961,0.7962,0.7969,0.8092,0.8094,0.8104,0.8022,0.8023,0.8025,0.8087,0,0.7447,0.754,0.7563,0.7643,0.769,0.7701,0.7746,0.7786,0.781,0.7854,0.7881,0.7931,0.7922,0.7942,0.7975,0.8005,0.8043,0.8001,0.8062,0.8064,0.8048,0.8115,0.8118,0.8175,0.8096,0.8097,0.8098,0,0.7534,0.7579,0.7663,0.7712,0.7733,0.7773,0.7824,0.7866,0.7911,0.7926,0.7962,0.7974,0.8028,0.8008,0.8082,0.8053,0.8079,0.8098,0.81,0.8107,0.8084,0.8122,0.8194,0.8202,0.8112,0.8111,0.811,0,0.7568,0.765,0.7711,0.7734,0.7794,0.7821,0.7847,0.7891,0.7922,0.7966,0.7986,0.8037,0.8064,0.8103,0.8128,0.8111,0.82,0.8182,0.8213,0.8212,0.8231,0.823,0.8307,0.8249,0.8249,0.8249,0.8249,0,0.7637,0.7688,0.7727,0.7764,0.782,0.7845,0.7901,0.7927,0.7965,0.8006,0.8019,0.8058,0.8089,0.8132,0.8152,0.821,0.8222,0.8236,0.824,0.8234,0.8232,0.8252,0.8248,0.8251,0.8251,0.825,0.825,0,0.7685,0.7714,0.778,0.783,0.7844,0.7883,0.7926,0.7962,0.7985,0.8038,0.8052,0.809,0.814,0.8169,0.8234,0.8247,0.8311,0.8314,0.8295,0.8297,0.8326,0.8323,0.8419,0.8432,0.8365,0.8366,0.8366,0,0.7727,0.7766,0.7819,0.7848,0.7874,0.792,0.7951,0.7976,0.8008,0.8061,0.809,0.8141,0.8184,0.8264,0.8297,0.8346,0.835,0.838,0.8358,0.835,0.8349,0.8346,0.835,0.8384,0.8385,0.8385,0.8386,0,0.7797,0.7808,0.7853,0.7901,0.7937,0.7977,0.8016,0.8039,0.807,0.8105,0.8157,0.819,0.8254,0.8305,0.8356,0.8382,0.8389,0.8392,0.8402,0.8396,0.8383,0.8389,0.8305,0.839,0.839,0.8389,0.8389,0.8389,0.7843,0.7877,0.7919,0.7967,0.7999,0.8035,0.807,0.8098,0.8141,0.8195,0.8207,0.8261,0.8303,0.8372,0.84,0.8442,0.8437,0.8451,0.8454,0.8457,0.8458,0.8376,0.8452,0.8451,0.8451,0.8451,0.8451,0,0.7912,0.794,0.7983,0.8037,0.8074,0.8076,0.8119,0.815,0.8197,0.8236,0.8276,0.8335,0.8383,0.8419,0.8468,0.8495,0.8499,0.8507,0.8505,0.8511,0.846,0.8447,0.8503,0.8503,0.8503,0.8503,0.8503,0.8503,0.7953,0.8011,0.8027,0.8099,0.8126,0.8179,0.8203,0.8235,0.8265,0.833,0.837,0.8392,0.8429,0.8481,0.8525,0.8534,0.8551,0.8558,0.8568,0.852,0.8515,0.8509,0.8496,0.8562,0.8562,0.8615,0.8615,0.8616]},{"header":{"parameterUnit":"m.s-1","parameterCategory":1,"la1":30.2991,"la2":30.254,"lo1":-89.0895,"lo2":-89.0444,"dy":0.0017,"dx":0.0017,"nx":28,"ny":28,"refTime":"2023-09-08T09:00:00:Z","depth":0,"parameterNumber":3,"parameterNumberName":"V-component_of_WINDS"},"data":[0,0,0,0,0,0,0,0,0,0,0,0,0,0,0,0,0,0,0,0,0,0,0,0,0,0,0,0,0,0,0,0,0,0,0,0,0,0,0,0,0,0,0,0,0,0,0,0,0,0,0,0,0,0,0,0,0,0,2.082,2.0819,0,2.0657,2.0655,2.0653,2.0532,2.0531,2.053,2.0529,2.0352,2.0349,2.0345,0,0,0,0,0,0,0,0,0,0,0,0,0,2.1019,2.1016,2.0821,2.0819,2.0817,2.0657,2.0655,2.0653,2.0532,2.0531,2.0529,2.0528,2.0354,2.0349,2.0345,0,0,0,0,0,0,0,0,0,0,0,0,0,2.0902,2.1016,2.0821,2.0737,2.0728,2.0658,2.0655,2.0652,2.0532,2.0531,2.0529,2.0528,2.0355,2.035,2.0344,2.0341,0,0,2.0327,2.0325,0,0,0,0,0,0,0,0,2.0909,2.0895,2.0752,2.0743,2.0733,2.0613,2.066,2.0547,2.0532,2.0606,2.0529,2.0527,2.044,2.0427,2.04,2.0333,2.0325,2.0327,2.0323,2.0321,2.0319,0,0,0,0,0,0,0,2.0917,2.0901,2.0755,2.075,2.0738,2.0705,2.0686,2.0638,2.0534,2.06,2.0591,2.0573,2.0434,2.0405,2.0395,2.0323,2.0327,2.0322,2.0318,2.0316,2.0242,2.0243,0,0,0,0,0,0,2.094,2.0909,2.0761,2.0751,2.0819,2.0703,2.0682,2.0653,2.0534,2.0514,2.0575,2.0568,2.0416,2.0401,2.0388,2.0375,2.0321,2.0316,2.0313,2.024,2.0242,2.0243,0,0,0,0,0,0,2.0944,2.0928,2.0767,2.0827,2.0804,2.0701,2.0669,2.0651,2.0622,2.0515,2.0495,2.0565,2.0414,2.0396,2.0354,2.0367,2.0313,2.0308,2.0239,2.0241,2.0243,2.035,0,0,0,0,0,0,2.0951,2.093,2.093,2.0828,2.0802,2.0739,2.067,2.0648,2.0613,2.0603,2.0501,2.0482,2.0411,2.0363,2.0348,2.0358,2.0304,2.0237,2.024,2.0242,2.0345,2.0355,2.0364,0,0,0,0,0,2.0958,2.0966,2.0931,2.0914,2.08,2.074,2.0724,2.0645,2.0615,2.0612,2.0544,2.0485,2.0368,2.0359,2.0342,2.0351,2.0236,2.0239,2.0242,2.034,2.0353,2.0364,0,0,0,0,0,0,2.1069,2.0951,2.0911,2.0886,2.0825,2.072,2.0714,2.0662,2.0605,2.0598,2.0499,2.0477,2.0445,2.0393,2.0385,2.034,2.0294,2.0294,2.0375,2.0386,2.0396,2.0409,2.0299,0,0,0,0,0,2.1091,2.1056,2.0952,2.094,2.0912,2.0819,2.079,2.0734,2.0665,2.0637,2.0565,2.0498,2.0446,2.0413,2.0359,2.0337,2.0311,2.0334,2.0344,2.0352,2.0353,2.0334,2.0343,2.0253,2.0253,2.0253,0,0,2.1136,2.1066,2.1049,2.0961,2.0907,2.0868,2.0797,2.0761,2.073,2.0631,2.0587,2.0532,2.045,2.0417,2.0399,2.0373,2.0372,2.0356,2.0364,2.0359,2.0339,2.0347,2.0355,2.0256,2.0255,2.0255,0,0,2.1197,2.1142,2.1125,2.1073,2.0992,2.093,2.0926,2.0829,2.0789,2.0744,2.0668,2.0629,2.0542,2.0486,2.0446,2.0485,2.0428,2.047,2.0521,2.0505,2.0512,2.0517,2.0529,2.0535,2.0471,2.0471,2.0471,0,2.1261,2.1204,2.1123,2.109,2.1052,2.0963,2.0943,2.0895,2.08,2.0774,2.0747,2.0635,2.0573,2.0525,2.0535,2.0506,2.0496,2.0481,2.0518,2.0523,2.0527,2.0537,2.0542,2.0477,2.0476,2.0476,2.0475,0,2.1286,2.1248,2.1243,2.1156,2.1118,2.1092,2.1003,2.0973,2.0921,2.0861,2.0814,2.0737,2.0666,2.065,2.0598,2.0594,2.058,2.0537,2.0489,2.0542,2.055,2.0554,2.0485,2.0483,2.0481,2.048,0,0,2.1413,2.1282,2.1281,2.124,2.1144,2.1111,2.1079,2.1011,2.0987,2.0924,2.0893,2.0821,2.078,2.0735,2.0675,2.066,2.0694,2.0618,2.0615,2.0634,2.0682,2.0715,2.0721,2.0656,2.0656,2.0657,2.0688,0,2.1459,2.1401,2.1326,2.1292,2.1254,2.1167,2.1139,2.1076,2.1018,2.0974,2.0909,2.0859,2.081,2.0782,2.0764,2.0694,2.0702,2.069,2.0623,2.0622,2.0646,2.0725,2.076,2.0794,2.0691,2.0692,2.0692,0,2.1504,2.1448,2.1412,2.1318,2.1298,2.1275,2.1206,2.1167,2.1091,2.105,2.1,2.0935,2.0894,2.0852,2.0793,2.0787,2.0754,2.0715,2.0714,2.0704,2.066,2.0716,2.0803,2.0808,2.0696,2.0696,2.0696,0,2.1599,2.1514,2.148,2.1448,2.1338,2.1323,2.1276,2.1199,2.1163,2.1101,2.1076,2.1009,2.0973,2.0921,2.0839,2.0817,2.0788,2.0739,2.075,2.0752,2.0747,2.0748,2.0829,2.0728,2.0728,2.0728,2.0728,0,2.1657,2.1637,2.1521,2.1501,2.1475,2.1388,2.1364,2.1308,2.124,2.1205,2.1125,2.1093,2.0987,2.0942,2.0877,2.0836,2.082,2.0783,2.0766,2.079,2.0795,2.0767,2.0762,2.0729,2.0729,2.0729,2.0729,0,2.1758,2.168,2.1638,2.1537,2.1511,2.1497,2.1409,2.1384,2.1322,2.1278,2.1262,2.1164,2.1105,2.1019,2.0934,2.089,2.0859,2.0832,2.0886,2.0875,2.089,2.089,2.0955,2.0958,2.0858,2.0859,2.086,0,2.18,2.1784,2.1682,2.1654,2.161,2.1566,2.1528,2.144,2.1404,2.1316,2.1301,2.1238,2.1182,2.1092,2.1011,2.0945,2.0915,2.0942,2.0904,2.0928,2.0913,2.0915,2.0912,2.0951,2.0952,2.0954,2.0955,0,2.1882,2.1844,2.1796,2.1733,2.1692,2.1637,2.1579,2.1559,2.1457,2.142,2.1362,2.1319,2.1233,2.1169,2.1092,2.1039,2.0979,2.0967,2.0966,2.099,2.1021,2.1003,2.0909,2.0966,2.0965,2.0964,2.0964,2.0963,2.1954,2.1935,2.186,2.1807,2.1755,2.1702,2.1673,2.1608,2.1558,2.1484,2.1433,2.1377,2.1298,2.1189,2.1139,2.1091,2.1066,2.1064,2.1064,2.1064,2.1073,2.103,2.1077,2.1076,2.1076,2.1075,2.1075,0,2.2031,2.1979,2.1932,2.1853,2.1811,2.1761,2.1693,2.1661,2.1613,2.1547,2.1494,2.1425,2.1363,2.1277,2.1207,2.1185,2.1156,2.117,2.117,2.1158,2.11,2.1107,2.1195,2.1195,2.1195,2.1195,2.1195,2.1195,2.2066,2.203,2.1983,2.1919,2.1865,2.1812,2.1777,2.1727,2.1673,2.1601,2.155,2.1495,2.142,2.1344,2.1284,2.1259,2.1237,2.126,2.1227,2.1174,2.1163,2.1152,2.1159,2.1256,2.1256,2.1289,2.1289,2.129]}]]